Location: Campestrin
(46.4667°N, 11.7167°E)
Time: 04:57:26
(UTC+00:00)

Cosmos 389 Rocket - Pass Details

Date: 18 April 2021
Orbit: 441 x 472 km, 81.1° (Epoch: 16 May)

Event Time Altitude Azimuth Distance (km) Brightness Sun altitude
Exits shadow 20:00:13 30° 192° (SSW) 844 3.5 -18.2°
Maximum altitude 20:01:50 88° 277° (W) 470 2.4 -18.4°
Drops below altitude 10° 20:05:24 10° 11° (N) 1,633 5.6 -18.9°
Sets 20:07:31 0° 11° (NNE) 2,519 6.6 -19.1°
